THORAD AGENA D DEB, 18785

Orbit data source: Space-Track

THORAD AGENA D DEB, 18785 is space debris in SSO originally from a launch on Wed, 08 Apr 1970 UTC launched from the Air Force Western Test Range (AFWTR). Debris objects in space refer to the collection of defunct objects orbiting the Earth. Examples of debris include non-operational satellites, rocket bodies, and fragments generated from explosions, collisions, or faulty payload assembly.

Loading next visibility...
Identifier
18785, 1970-025PQ
Orbit
SSO
Country
Flag of USUS
Related business
Manufacturer
Unknown
Mission
Spacecraft
Bus & Motor
Unknown
Mass
Unknown
Launch date (UTC)
1970-04-08 (56 years ago)
Launch vehicle
Unknown
Launch site
Air Force Western Test Range (AFWTR)
Object type
Payload
Rocket body
Debris
Shape & HBR
Unknown shape, 0.1 m
Radar Cross Section
Small (<0.1 m²)

Expand to show TLE details & history
Last TLE update: 13 hours ago

TLE from 13 hours ago
0 THORAD AGENA D DEB
1 18785U 70025PQ  25299.65372346  .00000341  00000-0  51071-3 0  9991
2 18785 100.0357 192.0506 0001182 158.9444 231.7625 13.61116014573013
Epoch: 2025-10-26T15:41Z
TLE epoch observation values (Epoch: 2025-10-26T15:41:21.706Z)
Latitude
30.22908°
Longitude
-84.44481°
Altitude
1,035.865 km
Speed
7.336 km/s
True Right ascension
12h 24m 38s
True Declination
30° 05' 07"
Sunlit
Object was in daylight at epoch
Visualization orbit readout
Latitude
Unknown
Longitude
Unknown
Altitude
Unknown
Speed
Unknown
Apparent Right ascension
Unknown
Apparent Declination
Unknown
Sunlit
N/A
Visualization observer readout
Local Sidereal Time
23:36:37
Azimuth
Unknown
Elevation
Unknown
Doppler factor
Unknown
Orbital elements
Apogee altitude
1,029.819 km
Perigee altitude
1,028.068 km
Semi-major axis
7,407.08 km
Eccentricity
0.00012
Inclination
100.0357°
RAAN
192.0506°
Arg. of periapsis
158.9444°
True anomaly
231.75186°
Mean anomaly
231.7625°
Eccentric anomaly
231.75718°
Mean motion
3.40465 °/min
Orbital period
105.74 mins
BSTAR
0.00051071

Documentation

Showing up to 5 results
|